GIA872 WARR-WIII

Flight info

Callsign GIA872
Flight time N/A
Altitude 34000
Route LASEM T2 KALUT T6 KURUS
Aircraft A339/H-SADE1E2E3GHIJ3J5M1P2RWXY/LB2D1

Departure

Time 2026-05-07 13:46
Airport Juanda International Airport (WARR)

Arrival

Time N/A
Airport Soekarno-Hatta International Airport (WIII)
Time Latitude Longitude Altitude Speed Heading
2026-05-07 13:27 -7.37641 112.79707 17 ft 0 kts
2026-05-07 13:37 -7.37651 112.79706 17 ft 2 kts
2026-05-07 13:37 -7.37666 112.79703 17 ft 2 kts
2026-05-07 13:37 -7.37675 112.79702 17 ft 2 kts
2026-05-07 13:37 -7.37690 112.79704 17 ft 2 kts 333°
2026-05-07 13:38 -7.37702 112.79713 17 ft 2 kts 309°
2026-05-07 13:38 -7.37709 112.79726 18 ft 1 kts 285°
2026-05-07 13:38 -7.37710 112.79732 18 ft 1 kts 280°
2026-05-07 13:38 -7.37710 112.79733 18 ft 0 kts 280°
2026-05-07 13:40 -7.37710 112.79729 17 ft 3 kts 280°
2026-05-07 13:40 -7.37708 112.79720 17 ft 6 kts 280°
2026-05-07 13:41 -7.37700 112.79658 17 ft 15 kts 276°
2026-05-07 13:41 -7.37686 112.79536 17 ft 18 kts 276°
2026-05-07 13:41 -7.37726 112.79450 17 ft 14 kts 202°
2026-05-07 13:41 -7.37829 112.79430 17 ft 16 kts 189°
2026-05-07 13:42 -7.37912 112.79391 17 ft 11 kts 248°
2026-05-07 13:42 -7.37908 112.79301 17 ft 15 kts 278°
2026-05-07 13:42 -7.37891 112.79186 17 ft 16 kts 279°
2026-05-07 13:42 -7.37872 112.79070 17 ft 16 kts 279°
2026-05-07 13:43 -7.37853 112.78954 17 ft 17 kts 279°
2026-05-07 13:43 -7.37834 112.78836 17 ft 17 kts 279°
2026-05-07 13:43 -7.37812 112.78705 17 ft 23 kts 279°
2026-05-07 13:43 -7.37781 112.78513 17 ft 32 kts 279°
2026-05-07 13:44 -7.37743 112.78275 18 ft 40 kts 279°
2026-05-07 13:44 -7.37693 112.77973 18 ft 45 kts 279°
2026-05-07 13:44 -7.37648 112.77696 18 ft 32 kts 279°
2026-05-07 13:44 -7.37615 112.77482 18 ft 26 kts 278°
2026-05-07 13:45 -7.37664 112.77381 18 ft 15 kts 204°
2026-05-07 13:45 -7.37759 112.77374 18 ft 6 kts 154°
2026-05-07 13:45 -7.37775 112.77406 18 ft 6 kts 107°
2026-05-07 13:45 -7.37785 112.77462 17 ft 10 kts 98°
2026-05-07 13:46 -7.37831 112.77750 18 ft 78 kts 99°
2026-05-07 13:46 -7.37950 112.78481 18 ft 137 kts 99°
2026-05-07 13:46 -7.38128 112.79573 123 ft 177 kts 99°
2026-05-07 13:46 -7.38327 112.80765 798 ft 175 kts 99°
2026-05-07 13:47 -7.38517 112.81896 1565 ft 170 kts 99°
2026-05-07 13:47 -7.38692 112.82931 2086 ft 174 kts 99°
2026-05-07 13:47 -7.38901 112.84175 2428 ft 189 kts 99°
2026-05-07 13:47 -7.39126 112.85525 2755 ft 206 kts 99°
2026-05-07 13:48 -7.39346 112.87019 3135 ft 224 kts 90°
2026-05-07 13:48 -7.38920 112.88545 3493 ft 242 kts 54°
2026-05-07 13:48 -7.37590 112.89606 3866 ft 260 kts 19°
2026-05-07 13:48 -7.35785 112.89782 4373 ft 272 kts 356°
2026-05-07 13:49 -7.33904 112.89590 5134 ft 275 kts 353°
2026-05-07 13:49 -7.32007 112.89360 5897 ft 278 kts 353°
2026-05-07 13:49 -7.30108 112.89143 6646 ft 281 kts 354°
2026-05-07 13:49 -7.28149 112.88937 7411 ft 284 kts 354°